Other Public Products
Issued by NWS Charleston, SC

Current Version | Previous Version | Graphics & Text | Print | Product List | Glossary On
Versions: 1 2 3 4 5 6 7 8 9 10 11 12 13 14 15 16 17 18 19 20 21 22 23 24 25 26 27 28 29 30 31 32 33 34 35 36 37 38 39 40 41 42 43 44 45 46 47 48 49 50
106 FPUS82 KCHS 241228 OPUCHS TEST...KCHS/KSAV Gateway Observations...TEST National Weather Service Charleston SC 800 AM EDT SUN SEP 24 2017 NOTE: "fair" indicates few or no clouds below 12,000 feet with no significant weather and/or obstructions to visibility. SCZ050-WAZ558-NCZ071-TXZ119-213-PAZ071-DCZ001-FLZ074-172-MI076- NYZ176-178-MAZ016-IL014-TNZ027-NJZ106-GAZ044-MD014-241300- ...Gateway Observations for Charleston International... CITY SKY/WX TMP DP RH WIND PRES REMARKS Chas Airport PTCLDY 70 69 97 N8 30.02R 6HR MIN TEMP: 69; 6HR MAX TEMP: 71; Seattle CLEAR 52 47 83 E3 30.15R 6HR MIN TEMP: 51; 6HR MAX TEMP: 60; Charlotte CLOUDY 67 63 87 N8 30.11R 6HR MIN TEMP: 64; 6HR MAX TEMP: 69; Dallas DFW MOCLDY 75 69 81 S7 29.88S 6HR MIN TEMP: 74; 6HR MAX TEMP: 81; Dallas Love CLOUDY 75 68 78 SE9 29.90R 6HR MIN TEMP: 75; 6HR MAX TEMP: 82; Philladelphia SUNNY 72 62 71 N6 30.09R 6HR MIN TEMP: 69; 6HR MAX TEMP: 73; Wash National MOSUNNY 70 62 76 N5 30.11R 6HR MIN TEMP: 67; 6HR MAX TEMP: 71; Baltimore MOSUNNY 66 63 90 CALM 30.09R 6HR MIN TEMP: 61; 6HR MAX TEMP: 66; Miami PTSUNNY 80 78 94 CALM 29.85R 6HR MIN TEMP: 80; 6HR MAX TEMP: 82; 6HR PCP: 0.01; Detroit PTCLDY 66 63 90 CALM 30.17R FOG Newark SUNNY 72 60 66 CALM 30.08R 6HR MIN TEMP: 65; 6HR MAX TEMP: 73; Laguardia SUNNY 73 61 65 N3 30.07R 6HR MIN TEMP: 71; 6HR MAX TEMP: 73; J F K SUNNY 73 60 63 N8 30.08R 6HR MIN TEMP: 65; 6HR MAX TEMP: 73; Boston Logan MOSUNNY 69 63 81 NW5 30.07S 6HR MIN TEMP: 61; 6HR MAX TEMP: 69; Ft. Lauderdale CLOUDY 80 77 90 NW7 29.84S 6HR MIN TEMP: 80; 6HR MAX TEMP: 81; 6HR PCP: 1.71; Chicago O`Hare CLEAR 71 64 78 S3 30.08R 6HR MIN TEMP: 70; 6HR MAX TEMP: 76; Chicago Midway CLEAR 74 65 73 S5 30.09R 6HR MIN TEMP: 74; 6HR MAX TEMP: 79; Houston Bush PTCLDY 73 72 96 NE3 29.88S 6HR MIN TEMP: 72; 6HR MAX TEMP: 76; Houston Hobby PTCLDY 76 72 87 E3 29.87R 6HR MIN TEMP: 75; 6HR MAX TEMP: 77; Nashville PTCLDY 68 66 93 SE3 30.07R 6HR MIN TEMP: 68; 6HR MAX TEMP: 72; Atlanta MOCLDY 70 64 81 NE8 30.08R 6HR MIN TEMP: 69; 6HR MAX TEMP: 74; $$ GAZ044-118-TXZ119-213-NCZ071-DCZ001-MDZ014-506-PAZ021-071-NJZ106- NYZ176-178-MAZ106-OHZ011-021-055-MIZ076-KYZ091-ILZ014-INZ047- MNZ060-ONZ431-241300- ...Gateway Observations for Savannah International... CITY SKY/WX TMP DP RH WIND PRES REMARKS Savannah Arpt PTCLDY 70 69 97 N7 30.01R 6HR MIN TEMP: 69; 6HR MAX TEMP: 71; Atlanta MOCLDY 70 64 81 NE8 30.08R 6HR MIN TEMP: 69; 6HR MAX TEMP: 74; Charlotte CLOUDY 67 63 87 N8 30.11R 6HR MIN TEMP: 64; 6HR MAX TEMP: 69; Dallas DFW MOCLDY 75 69 81 S7 29.88S 6HR MIN TEMP: 74; 6HR MAX TEMP: 81; Houston Bush PTCLDY 73 72 96 NE3 29.88S 6HR MIN TEMP: 72; 6HR MAX TEMP: 76; Wash National MOSUNNY 70 62 76 N5 30.11R 6HR MIN TEMP: 67; 6HR MAX TEMP: 71; Wash Dulles MOSUNNY 64 60 87 NW6 30.12R 6HR MIN TEMP: 60; 6HR MAX TEMP: 64; Baltimore MOSUNNY 66 63 90 CALM 30.09R 6HR MIN TEMP: 61; 6HR MAX TEMP: 66; Philadelphia SUNNY 72 62 71 N6 30.09R 6HR MIN TEMP: 69; 6HR MAX TEMP: 73; Newark SUNNY 72 60 66 CALM 30.08R 6HR MIN TEMP: 65; 6HR MAX TEMP: 73; Laguardia SUNNY 73 61 65 N3 30.07R 6HR MIN TEMP: 71; 6HR MAX TEMP: 73; J F K SUNNY 73 60 63 N8 30.08R 6HR MIN TEMP: 65; 6HR MAX TEMP: 73; Boston MOSUNNY 69 63 81 NW5 30.07S 6HR MIN TEMP: 61; 6HR MAX TEMP: 69; Pittsburg CLEAR 62 58 86 CALM 30.19R 6HR MIN TEMP: 60; 6HR MAX TEMP: 66; Akron CLEAR 66 59 78 NE6 30.20R 6HR MIN TEMP: 63; 6HR MAX TEMP: 70; Cleveland CLEAR 67 61 81 S5 30.19R 6HR MIN TEMP: 64; 6HR MAX TEMP: 72; Cincinnati CLEAR 67 62 84 E6 30.11S 6HR MIN TEMP: 66; 6HR MAX TEMP: 73; Columbus CLEAR 62 60 93 CALM 30.15R Detroit PTCLDY 66 63 90 CALM 30.17R FOG Chicago O`Hare CLEAR 71 64 78 S3 30.08R 6HR MIN TEMP: 70; 6HR MAX TEMP: 76; Minneapolis PTCLDY 71 64 78 SE7 29.94S 6HR MIN TEMP: 70; 6HR MAX TEMP: 79; Indianapolis CLEAR 69 62 78 NE5 30.11R 6HR MIN TEMP: 66; 6HR MAX TEMP: 73; Toronto Canada CLEAR 70 66 88 NW2 30.15R $$

USA.gov is the U.S. government's official web portal to all federal, state and local government web resources and services.